Regional Weather Roundup
Issued by NWS Charleston, SC

Current Version | Previous Version | Graphics & Text | Print | Product List | Glossary On
Versions: 1 2 3 4 5 6 7 8 9 10 11 12 13 14 15 16 17 18 19 20 21 22 23 24 25 26 27 28 29 30 31 32 33 34 35 36 37 38 39 40 41 42 43 44 45 46 47 48 49 50
000 ASUS42 KCHS 202212 RWRCHS Regional Weather Roundup National Weather Service Charleston SC 600 PM EDT FRI APR 20 2018 NOTE: "fair" indicates few or no clouds below 12,000 feet with no significant weather and/or obstructions to visibility. Not all stations are quality controlled. Use data with caution, especially dewpoint observations. SCZ027-030-031-034>040-042>050-202300- ...Southeast South Carolina... CITY SKY/WX TMP DP RH WIND PRES REMARKS N Charleston FAIR 64 41 42 E10 30.26S Waterfront Prk N/A 62 45 53 E12 30.12F Mount Pleasant FAIR 61 43 51 SE7 30.28S Johns Island FAIR 61 43 51 E12 30.27F Pinopolis N/A 64 37 36 NW5 30.18S Moncks Corner FAIR 66 28 24 N5 30.26F Summerville FAIR 66 30 26 E3 30.27F Beaufort MCAS FAIR 67 48 50 E8 30.26S Beaufort Arpt FAIR 63 45 51 SE6 30.26S Hilton Head Is SUNNY 63 45 51 NE7G14 30.27F Walterboro FAIR 68 32 26 N7 30.27S Allendale FAIR 68 30 24 CALM 30.25F ...Southern Midlands and Pee Dee... CITY SKY/WX TMP DP RH WIND PRES REMARKS Georgetown FAIR 61 36 39 E9 30.29S Kingstree FAIR 66 27 22 E5 30.27S Orangeburg FAIR 67 29 24 VRB3 30.26F Barnwell FAIR 68 28 22 NE6 30.26S Aiken FAIR 66 28 24 N5 30.30S Manning FAIR 63 27 25 NE3 30.27S Columbia FAIR 70 27 20 VRB3 30.26S Sumter FAIR 68 28 22 SE7 30.24F Florence FAIR 69 30 23 N6 30.27F Myrtle Beach FAIR 59 40 49 SE9 30.29S N Myrtle Beach FAIR 60 38 43 SE7 30.28S $$ GAZ063-065-086>088-099>101-113>116-118-119-134>141-150-202300- ...Southeast Georgia... CITY SKY/WX TMP DP RH WIND PRES REMARKS Savannah Arpt FAIR 68 39 34 NE7 30.25F Hunter AAF FAIR 67 45 45 E9 30.23F Fort Stewart FAIR 69 41 36 NE7 30.22F Statesboro FAIR 70 31 23 NE3 30.25S Sylvania FAIR 70 39 32 N5 30.26S Claxton FAIR 70 41 34 N7 30.25S ...CSRA, Central and far Southeast Georgia... CITY SKY/WX TMP DP RH WIND PRES REMARKS Thomson FAIR 67 27 22 E8 30.31F Augusta-Bush FAIR 70 28 21 CALM 30.25F Augusta-Daniel FAIR 70 29 21 NW6 30.26F Swainsboro FAIR 70 37 30 E7 30.25F Vidalia FAIR 70 43 37 N6 30.24F Eastman FAIR 73 16 11 E8 30.26S Hazlehurst FAIR 70 36 28 NE9 30.23S Alma FAIR 71 44 37 E6 30.22S Waycross FAIR 70 46 41 E9 30.22S Jesup NOT AVBL Baxley FAIR 68 41 37 NE5 30.22S Brunswick CLOUDY 61 50 67 NE12 30.26S Saint Simons CLOUDY 62 51 67 NE14 30.24S $$ SCZ027-028-034-036>038-045-046-048>050-GAZ119-141-202300- ...Lake and Supplemental Coastal Observations... STATION/POSITION TIME TEMP WIND PRES WAVE SWELL AIR SEA DIR/SP/G HT/PER HT/PER/DIR (UTC) (F) (DEG/KT/KT) (MB) (FT/S) (FT/S/D) Winyah Bay 2045 58 110/ 7 1026.0 Lake Murray 2120 65 210/ 6/ 7 1024.4 ACE Basin NERRS 2045 66 350/ 5 N/A Fort Pulaski 2142 61 65 80/ 12/ 15 1025.1F Sapelo Island 2100 62 40/ 15 1024.0 $$ ANZ835-935-AMZ111-154-330-350-352-354-370-450-454-472-202300- ...C-MAN and Buoy Observations... STATION/POSITION TIME TEMP WIND PRES WAVE SWELL AIR SEA DIR/SP/G HT/PER HT/PER/DIR (UTC) (F) (DEG/KT/KT) (MB) (FT/S) (FT/S/D) Buoy 41004 2150 59 67 50/ 17/ 19 1025.0F 6/ 8 3/ 70/ 8 Buoy 41008 2150 60 65 50/ 21/ 27 1023.6R 6/ 6 2/ 90/14 Folly Beach CMAN 2200 60 80/ 12/ 14 1025.7F Capers Nearshore 2108 59 63 100/ 14/ 19 1025.4F Fripp Nearshore 2108 59 64 80/ 12/ 17 1024.5F STATION/POSITION TIME TEMP WIND PRES WAVE SWELL AIR SEA DIR/SP/G HT/PER HT/PER/DIR (UTC) (F) (DEG/KT/KT) (MB) (FT/S) (FT/S/D) 5E St. Marys GA 2200 66 N/A 7/ 7 2/100/11 Frying Pan Buoy 2150 57 65 90/ 10/ 14 1025.4F 4/ 8 3/ 90/ 8 Buoy 41025 2200 51 70 20/ 10/ 16 1026.4 Cape Lookout NC 2100 90/ 10/ 12 1025.4S Buoy 41002 2150 64 72 20/ 16/ 21 1022.9R 7/ 8 3/ 70/14 Buoy 41010 2150 74 75 50/ 16/ 17 1019.7S 6/ 8 3/ 10/ 8 St Augustine FL 2200 64 67 10/ 25/ 28 1022.0S $$

USA.gov is the U.S. government's official web portal to all federal, state and local government web resources and services.